OAL017 LGAV-BKPR

Flight info

Callsign OAL017
Flight time 0h 54m
Altitude 34000
Route ROPOX UM749 SKP UL617 MAKED DCT XAXAN
Aircraft B737/M-SDE2E3FGHIRWXY/LB1

Departure

Time 2026-04-16 14:12
Airport Athens Eleftherios Venizelos International Airport (LGAV)

Arrival

Time 2026-04-16 15:06
Airport Priština Adem Jashari International Airport (BKPR)
Time Latitude Longitude Altitude Speed Heading
2026-04-16 14:00 37.92910 23.94106 300 ft 0 kts 217°
2026-04-16 14:03 37.92916 23.94112 300 ft 4 kts 217°
2026-04-16 14:04 37.92937 23.94132 300 ft 4 kts 217°
2026-04-16 14:04 37.92958 23.94152 299 ft 4 kts 217°
2026-04-16 14:04 37.92978 23.94177 300 ft 4 kts 286°
2026-04-16 14:04 37.92976 23.94187 299 ft 0 kts 315°
2026-04-16 14:05 37.92996 23.94158 302 ft 15 kts 311°
2026-04-16 14:05 37.93089 23.94011 300 ft 21 kts 304°
2026-04-16 14:05 37.93175 23.93858 300 ft 21 kts 308°
2026-04-16 14:06 37.93265 23.93713 300 ft 21 kts 308°
2026-04-16 14:06 37.93353 23.93570 301 ft 21 kts 308°
2026-04-16 14:06 37.93314 23.93418 300 ft 24 kts 217°
2026-04-16 14:06 37.93167 23.93279 301 ft 29 kts 217°
2026-04-16 14:07 37.92989 23.93112 302 ft 34 kts 217°
2026-04-16 14:07 37.92787 23.92918 301 ft 38 kts 217°
2026-04-16 14:07 37.92564 23.92705 302 ft 42 kts 217°
2026-04-16 14:07 37.92322 23.92480 302 ft 45 kts 216°
2026-04-16 14:08 37.92099 23.92264 300 ft 22 kts 218°
2026-04-16 14:08 37.92078 23.92125 301 ft 14 kts 307°
2026-04-16 14:08 37.92121 23.92052 303 ft 0 kts 307°
2026-04-16 14:10 37.92122 23.92052 303 ft 0 kts 307°
2026-04-16 14:11 37.92133 23.92033 301 ft 5 kts 307°
2026-04-16 14:11 37.92167 23.91978 303 ft 10 kts 311°
2026-04-16 14:11 37.92233 23.91973 302 ft 12 kts 37°
2026-04-16 14:11 37.92415 23.92148 302 ft 69 kts 37°
2026-04-16 14:12 37.92991 23.92702 295 ft 136 kts 37°
2026-04-16 14:12 37.93847 23.93530 615 ft 162 kts 40°
2026-04-16 14:12 37.94747 23.94412 1436 ft 163 kts 37°
2026-04-16 14:12 37.95654 23.95313 2228 ft 166 kts 36°
2026-04-16 14:13 37.96561 23.96201 3073 ft 163 kts 37°
2026-04-16 14:13 37.97473 23.97078 3774 ft 174 kts 35°
2026-04-16 14:13 37.98588 23.98038 4080 ft 213 kts 34°
2026-04-16 14:13 37.99895 23.99169 4681 ft 236 kts 36°
2026-04-16 14:14 38.01257 24.00374 5744 ft 241 kts 37°
2026-04-16 14:14 38.02641 24.01621 6743 ft 248 kts 38°
2026-04-16 14:14 38.04071 24.02922 7662 ft 256 kts 38°
2026-04-16 14:14 38.05540 24.04265 8601 ft 264 kts 39°
2026-04-16 14:15 38.07075 24.05599 9490 ft 277 kts 31°
2026-04-16 14:15 38.09010 24.06195 10177 ft 299 kts
2026-04-16 14:15 38.11140 24.05671 10577 ft 329 kts 341°
2026-04-16 14:15 38.13353 24.04566 10988 ft 351 kts 338°
2026-04-16 14:16 38.15632 24.03345 11812 ft 358 kts 337°
2026-04-16 14:16 38.17942 24.02104 12797 ft 362 kts 337°
2026-04-16 14:16 38.20285 24.00854 13719 ft 370 kts 336°
2026-04-16 14:16 38.22685 23.99589 14553 ft 376 kts 337°
2026-04-16 14:17 38.25118 23.98314 15509 ft 379 kts 337°
2026-04-16 14:17 38.27569 23.97031 16486 ft 383 kts 337°
2026-04-16 14:17 38.30043 23.95735 17429 ft 387 kts 337°
2026-04-16 14:17 38.32547 23.94419 18333 ft 392 kts 337°
2026-04-16 14:18 38.35048 23.93102 19082 ft 397 kts 337°
2026-04-16 14:18 38.37645 23.91726 19886 ft 401 kts 337°
2026-04-16 14:18 38.40190 23.90370 20716 ft 403 kts 337°
2026-04-16 14:18 38.42783 23.88987 21582 ft 406 kts 337°
2026-04-16 14:19 38.45400 23.87588 22351 ft 410 kts 337°
2026-04-16 14:19 38.48050 23.86166 23098 ft 415 kts 337°
2026-04-16 14:19 38.50724 23.84725 23809 ft 419 kts 337°
2026-04-16 14:19 38.53423 23.83264 24415 ft 423 kts 337°
2026-04-16 14:20 38.56147 23.81789 25007 ft 428 kts 337°
2026-04-16 14:20 38.58906 23.80292 25604 ft 432 kts 337°
2026-04-16 14:20 38.61684 23.78785 26186 ft 436 kts 337°
2026-04-16 14:20 38.64491 23.77263 26702 ft 442 kts 337°
2026-04-16 14:21 38.67353 23.75713 27140 ft 448 kts 337°
2026-04-16 14:21 38.70214 23.74165 27943 ft 447 kts 337°
2026-04-16 14:21 38.73089 23.72601 28473 ft 451 kts 337°
2026-04-16 14:21 38.75996 23.71013 28941 ft 457 kts 337°
2026-04-16 14:22 38.78933 23.69406 29440 ft 461 kts 337°
2026-04-16 14:22 38.81906 23.67817 29934 ft 464 kts 340°
2026-04-16 14:22 38.85003 23.66608 30358 ft 468 kts 348°
2026-04-16 14:22 38.88214 23.65877 30785 ft 469 kts 353°
2026-04-16 14:23 38.91454 23.65417 31358 ft 467 kts 355°
2026-04-16 14:23 38.94681 23.65009 31935 ft 465 kts 355°
2026-04-16 14:23 38.97898 23.64579 32424 ft 466 kts 354°
2026-04-16 14:23 39.01129 23.64115 32895 ft 467 kts 354°
2026-04-16 14:24 39.04359 23.63636 33383 ft 467 kts 354°
2026-04-16 14:24 39.07588 23.63154 33893 ft 466 kts 354°
2026-04-16 14:24 39.10816 23.62674 34083 ft 469 kts 354°
2026-04-16 14:24 39.14055 23.62196 34066 ft 467 kts 354°
2026-04-16 14:25 39.20377 23.60665 34069 ft 461 kts 340°
2026-04-16 14:25 39.26365 23.57653 34085 ft 463 kts 338°
2026-04-16 14:26 39.32395 23.54687 34086 ft 464 kts 339°
2026-04-16 14:26 39.38447 23.51776 34091 ft 463 kts 339°
2026-04-16 14:27 39.44461 23.48865 34099 ft 460 kts 338°
2026-04-16 14:27 39.50433 23.45963 34100 ft 457 kts 338°
2026-04-16 14:28 39.56380 23.43068 34099 ft 456 kts 338°
2026-04-16 14:28 39.62305 23.40178 34102 ft 455 kts 338°
2026-04-16 14:29 39.68225 23.37285 34105 ft 455 kts 338°
2026-04-16 14:29 39.74150 23.34387 34097 ft 455 kts 338°
2026-04-16 14:30 39.80086 23.31506 34105 ft 456 kts 338°
2026-04-16 14:30 39.86031 23.28621 34099 ft 455 kts 338°
2026-04-16 14:31 39.91955 23.25736 34094 ft 455 kts 338°
2026-04-16 14:31 39.97870 23.22830 34101 ft 454 kts 338°
2026-04-16 14:32 40.03738 23.19935 34106 ft 454 kts 338°
2026-04-16 14:32 40.09643 23.17020 34100 ft 454 kts 338°
2026-04-16 14:33 40.15546 23.14102 34107 ft 453 kts 338°
2026-04-16 14:33 40.21456 23.11173 34114 ft 459 kts 338°
2026-04-16 14:34 40.27497 23.08173 34118 ft 467 kts 338°
2026-04-16 14:34 40.33564 23.05156 34099 ft 466 kts 338°
2026-04-16 14:35 40.39617 23.02139 34102 ft 465 kts 338°
2026-04-16 14:35 40.45644 22.99114 34102 ft 463 kts 336°
2026-04-16 14:36 40.51396 22.95362 34102 ft 460 kts 330°
2026-04-16 14:36 40.56999 22.91312 34104 ft 459 kts 329°
2026-04-16 14:37 40.62614 22.87289 34109 ft 459 kts 330°
2026-04-16 14:37 40.68246 22.83315 34107 ft 459 kts 330°
2026-04-16 14:38 40.73884 22.79353 34112 ft 459 kts 330°
2026-04-16 14:38 40.79523 22.75383 34110 ft 460 kts 330°
2026-04-16 14:39 40.85177 22.71392 34123 ft 461 kts 329°
2026-04-16 14:39 40.90842 22.67384 34126 ft 462 kts 329°
2026-04-16 14:40 40.96518 22.63360 34123 ft 463 kts 329°
2026-04-16 14:40 41.02204 22.59321 34119 ft 464 kts 329°
2026-04-16 14:41 41.07891 22.55274 34116 ft 464 kts 329°
2026-04-16 14:41 41.12589 22.51849 34120 ft 463 kts 325°
2026-04-16 14:42 41.17573 22.46543 34126 ft 459 kts 316°
2026-04-16 14:42 41.22329 22.40903 34128 ft 458 kts 315°
2026-04-16 14:43 41.27090 22.35283 34124 ft 458 kts 316°
2026-04-16 14:43 41.31866 22.29700 34127 ft 456 kts 316°
2026-04-16 14:44 41.36626 22.24152 34128 ft 454 kts 316°
2026-04-16 14:44 41.41372 22.18612 34127 ft 453 kts 316°
2026-04-16 14:45 41.46099 22.13081 34133 ft 452 kts 316°
2026-04-16 14:45 41.50766 22.07611 34116 ft 441 kts 316°
2026-04-16 14:46 41.53069 22.04906 33748 ft 444 kts 316°
2026-04-16 14:46 41.55383 22.02183 33100 ft 443 kts 316°
2026-04-16 14:46 41.57690 21.99468 32378 ft 441 kts 316°
2026-04-16 14:46 41.59987 21.96762 31762 ft 438 kts 316°
2026-04-16 14:47 41.62200 21.94153 31227 ft 434 kts 316°
2026-04-16 14:47 41.64455 21.91492 30686 ft 430 kts 316°
2026-04-16 14:47 41.66686 21.88856 30145 ft 426 kts 316°
2026-04-16 14:47 41.68896 21.86244 29528 ft 422 kts 316°
2026-04-16 14:48 41.71077 21.83662 28973 ft 416 kts 316°
2026-04-16 14:48 41.73229 21.81112 28419 ft 411 kts 316°
2026-04-16 14:48 41.75353 21.78592 27872 ft 406 kts 316°
2026-04-16 14:48 41.77456 21.76096 27321 ft 401 kts 316°
2026-04-16 14:49 41.79534 21.73626 26771 ft 398 kts 317°
2026-04-16 14:49 41.81594 21.71176 26234 ft 395 kts 317°
2026-04-16 14:49 41.83645 21.68734 25681 ft 392 kts 317°
2026-04-16 14:49 41.85679 21.66309 25158 ft 389 kts 317°
2026-04-16 14:50 41.87697 21.63903 24623 ft 387 kts 317°
2026-04-16 14:50 41.89703 21.61509 24097 ft 385 kts 317°
2026-04-16 14:50 41.91701 21.59122 23516 ft 384 kts 318°
2026-04-16 14:50 41.93688 21.56745 22912 ft 381 kts 318°
2026-04-16 14:51 41.95662 21.54383 22347 ft 378 kts 319°
2026-04-16 14:51 41.97614 21.52046 21815 ft 374 kts 319°
2026-04-16 14:51 41.99551 21.49723 21280 ft 371 kts 319°
2026-04-16 14:51 42.01473 21.47418 20752 ft 369 kts 319°
2026-04-16 14:53 42.14924 21.32327 17106 ft 348 kts 344°
2026-04-16 14:53 42.17214 21.31543 16664 ft 342 kts 349°
2026-04-16 14:54 42.19535 21.30933 16183 ft 338 kts 351°
2026-04-16 14:54 42.21845 21.30355 15674 ft 337 kts 351°
2026-04-16 14:54 42.24139 21.29765 15175 ft 335 kts 350°
2026-04-16 14:54 42.26420 21.29158 14673 ft 333 kts 349°
2026-04-16 14:55 42.28689 21.28537 14165 ft 332 kts 349°
2026-04-16 14:55 42.30950 21.27910 13645 ft 331 kts 349°
2026-04-16 14:55 42.33200 21.27282 13085 ft 330 kts 349°
2026-04-16 14:55 42.35442 21.26656 12576 ft 327 kts 349°
2026-04-16 14:56 42.37669 21.26037 11989 ft 327 kts 349°
2026-04-16 14:56 42.39898 21.25419 11454 ft 326 kts 349°
2026-04-16 14:56 42.42115 21.24804 10932 ft 324 kts 349°
2026-04-16 14:56 42.44316 21.24192 10436 ft 323 kts 349°
2026-04-16 14:57 42.46471 21.23592 10271 ft 309 kts 349°
2026-04-16 14:57 42.48537 21.23016 10110 ft 297 kts 349°
2026-04-16 14:57 42.50525 21.22462 9919 ft 287 kts 350°
2026-04-16 14:57 42.52476 21.21919 9531 ft 284 kts 350°
2026-04-16 14:58 42.54401 21.21382 9168 ft 281 kts 350°
2026-04-16 14:58 42.58210 21.20321 8444 ft 277 kts 349°
2026-04-16 14:58 42.60092 21.19795 8087 ft 276 kts 350°
2026-04-16 14:59 42.61967 21.19270 7729 ft 274 kts 351°
2026-04-16 14:59 42.63803 21.18756 7570 ft 264 kts 351°
2026-04-16 14:59 42.65573 21.18260 7312 ft 259 kts 350°
2026-04-16 14:59 42.67331 21.17768 7000 ft 257 kts 350°
2026-04-16 15:00 42.69076 21.17280 6694 ft 255 kts 350°
2026-04-16 15:00 42.70815 21.16793 6369 ft 255 kts 350°
2026-04-16 15:00 42.72551 21.16306 6036 ft 254 kts 351°
2026-04-16 15:00 42.74239 21.15643 5775 ft 253 kts 333°
2026-04-16 15:01 42.75493 21.14035 5667 ft 248 kts 301°
2026-04-16 15:01 42.76022 21.11854 5538 ft 241 kts 276°
2026-04-16 15:01 42.76000 21.09614 5432 ft 234 kts 267°
2026-04-16 15:01 42.75867 21.07439 5322 ft 227 kts 266°
2026-04-16 15:02 42.75735 21.05325 5134 ft 224 kts 266°
2026-04-16 15:02 42.75455 21.03254 4895 ft 224 kts 242°
2026-04-16 15:02 42.74365 21.01853 4667 ft 216 kts 195°
2026-04-16 15:02 42.72962 21.01792 4510 ft 195 kts 169°
2026-04-16 15:03 42.71659 21.02045 4353 ft 182 kts 169°
2026-04-16 15:03 42.70433 21.02229 4131 ft 171 kts 171°
2026-04-16 15:03 42.69291 21.02359 3913 ft 165 kts 171°
2026-04-16 15:03 42.68174 21.02475 3711 ft 157 kts 170°
2026-04-16 15:04 42.67136 21.02578 3526 ft 144 kts 170°
2026-04-16 15:04 42.66162 21.02678 3330 ft 139 kts 170°
2026-04-16 15:04 42.65181 21.02780 3155 ft 142 kts 172°
2026-04-16 15:04 42.64180 21.02885 2946 ft 144 kts 172°
2026-04-16 15:05 42.63190 21.02984 2744 ft 142 kts 172°
2026-04-16 15:05 42.62216 21.03083 2557 ft 139 kts 174°
2026-04-16 15:05 42.61265 21.03180 2354 ft 135 kts 175°
2026-04-16 15:05 42.60327 21.03277 2194 ft 135 kts 175°
2026-04-16 15:06 42.59393 21.03371 2001 ft 134 kts 175°
2026-04-16 15:06 42.58471 21.03466 1832 ft 133 kts 175°
2026-04-16 15:06 42.57622 21.03556 1784 ft 98 kts 176°
2026-04-16 15:06 42.57226 21.03595 1789 ft 47 kts 176°
2026-04-16 15:07 42.57062 21.03545 1787 ft 20 kts 276°
2026-04-16 15:07 42.57167 21.03431 1785 ft 20 kts 338°
2026-04-16 15:07 42.57285 21.03345 1786 ft 19 kts 325°
2026-04-16 15:07 42.57376 21.03220 1786 ft 18 kts 314°
2026-04-16 15:08 42.57395 21.03155 1786 ft 0 kts 276°